Temp
18 19 19 19 23 23 25 25 25 25 26 25 24 26 27 25 26 25 19 18 18 17 17 20 19 18 17 17 17 18 18 18 18 17 17 17 17 17 17 17 17 17 17 17 17 16 17 17 17
18 19 19 20 23 24 26 26 24 26 25 24 23 24 25 25 22 20 19 18 18 17 17 17 19 18 17 17 17 18 18 18 18 18 17 17 17 17 17 17 17 17 17 17 16 16 16 17 17
19 19 20 22 23 24 25 24 25 24 23 24 24 22 24 23 21 21 19 19 18 17 17 17 18 18 17 17 17 18 18 18 18 17 18 17 17 17 17 17 16 17 17 16 16 16 16 16 17
18 19 20 22 21 23 24 24 23 24 23 22 23 25 21 19 20 20 19 18 18 17 17 17 18 17 17 17 16 17 18 18 17 17 18 18 17 17 17 16 17 16 16 16 16 16 16 16 16
18 20 22 22 23 23 23 22 22 24 24 23 22 23 22 19 19 19 18 18 18 18 17 17 18 18 17 17 17 17 18 18 18 17 17 16 17 17 17 16 16 16 16 16 16 16 16 16 16
20 20 23 23 24 24 24 23 23 24 24 23 23 23 22 19 19 19 18 18 18 18 17 16 18 17 18 17 17 17 17 18 18 18 16 16 16 16 16 16 16 16 16 16 15 15 15 16 16
21 22 23 22 22 23 24 22 24 24 24 24 23 25 22 19 18 19 18 18 18 17 17 16 17 17 17 17 17 16 17 18 17 17 16 16 16 16 16 16 16 16 16 16 15 15 15 16 16
19 21 21 22 23 23 23 22 22 23 24 20 21 24 24 20 18 18 18 18 17 17 17 16 16 16 16 16 17 17 17 17 17 17 17 16 16 16 16 16 16 16 16 15 15 15 15 15 15
17 21 22 22 21 23 22 23 21 21 22 21 21 22 20 19 19 18 17 17 18 17 16 16 16 16 16 16 16 17 17 17 16 16 16 15 14 15 15 15 16 16 16 15 15 15 15 15 15
20 20 22 22 22 22 22 22 22 22 23 22 21 21 21 20 18 18 18 18 17 19 18 16 16 16 17 16 16 16 15 15 16 15 15 15 15 15 15 14 16 15 15 15 15 14 15 14 13
19 20 21 21 20 20 21 21 21 22 22 23 23 22 20 19 19 19 19 19 18 18 17 16 16 16 17 16 16 16 16 15 16 15 16 15 14 15 14 14 14 15 15 15 14 14 13 14 13
19 19 19 20 19 19 21 21 21 21 22 22 21 21 21 20 20 19 20 20 19 18 17 18 18 17 16 16 15 15 15 15 15 15 15 15 15 14 14 14 14 14 15 15 14 13 13 13 13
19 20 19 18 18 18 19 19 21 21 21 21 20 19 20 20 20 20 20 19 19 19 17 18 18 16 15 16 15 15 15 15 15 15 15 15 15 15 14 14 14 14 14 15 14 13 13 13 13
19 18 19 19 19 19 19 20 20 21 21 21 20 20 20 20 20 20 18 18 18 18 18 18 18 17 15 15 17 17 17 16 16 15 14 15 15 15 14 14 14 14 14 14 14 13 12 12 13
18 18 20 20 20 20 18 20 21 20 21 20 21 20 20 20 19 19 19 19 19 19 17 19 18 17 17 17 17 17 17 17 16 16 16 16 15 15 14 14 14 14 14 14 14 13 13 12 12
19 19 19 20 19 19 18 21 22 20 20 20 21 21 21 20 19 19 19 19 18 18 19 18 18 17 17 17 17 17 17 16 16 16 16 15 15 15 14 13 13 13 13 14 13 13 13 12 11
19 19 20 20 19 20 19 21 21 19 19 20 21 21 21 20 20 19 18 19 17 19 19 18 18 17 17 16 17 16 16 16 16 16 15 15 15 15 14 13 12 13 13 13 13 13 12 11 11
20 19 20 19 20 18 19 19 21 21 20 20 21 21 21 21 20 20 18 19 19 19 18 18 17 17 17 16 17 16 16 16 16 15 15 14 14 14 14 13 12 12 12 12 12 12 12 11 10
19 18 18 20 19 17 19 20 21 21 20 20 21 22 22 21 21 20 17 19 18 18 18 18 17 17 17 16 16 16 16 15 15 14 14 14 14 13 13 12 11 11 11 11 11 11 11 11 10
17 17 18 19 19 18 19 19 20 21 21 21 21 22 22 22 21 17 16 17 17 17 17 17 16 16 16 15 15 14 12 14 14 14 13 13 13 13 13 12 11 11 10 11 11 11 11 10 10
17 17 18 18 19 18 18 18 21 20 20 20 19 19 20 21 20 17 15 14 14 13 15 16 16 16 15 15 14 14 13 13 13 12 12 13 13 13 12 12 11 11 10 10 10 10 10 10 9
17 18 17 16 16 17 18 18 21 20 20 22 21 19 18 17 17 17 14 13 12 12 14 15 15 15 14 14 13 12 11 12 11 11 12 12 13 12 12 12 11 10 10 10 11 10 10 10 9
17 17 16 16 16 17 17 17 21 17 19 22 20 17 15 14 15 14 13 12 12 13 14 14 14 14 13 13 12 12 11 11 11 12 12 12 12 12 12 12 12 10 10 10 11 10 10 10 10
17 16 15 15 16 16 18 18 20 19 20 22 20 16 14 12 13 13 12 11 11 13 13 14 13 13 12 12 12 11 10 11 11 12 12 12 12 12 12 12 11 11 10 11 11 11 10 10 10
16 15 14 14 15 16 16 16 19 19 17 20 20 18 13 12 12 12 11 11 11 12 13 12 12 12 11 12 11 11 11 11 11 11 12 12 12 12 12 11 10 10 10 10 11 11 10 10 10
15 16 14 13 15 16 14 15 19 17 16 16 16 14 12 12 11 10 11 11 10 10 12 11 11 11 11 11 11 11 12 12 12 12 12 12 12 12 12 12 11 11 10 10 11 10 10 10 10
16 15 17 15 14 14 16 18 18 16 17 15 15 13 11 11 9 9 10 10 10 10 11 11 10 10 10 10 10 11 11 11 11 12 12 12 12 12 12 12 11 10 10 10 10 10 10 10 10
18 17 13 12 12 12 16 17 18 17 17 17 14 12 11 9 9 10 10 10 10 9 10 10 10 10 10 9 9 11 10 11 11 11 11 11 12 12 12 12 12 10 10 10 10 10 10 10 10
15 14 15 15 14 16 16 16 18 17 16 14 13 11 11 9 9 10 10 9 9 9 9 9 9 9 9 9 10 10 10 10 10 10 11 11 12 12 11 11 11 11 9 10 10 10 10 10 10
12 11 15 14 14 15 16 17 17 16 14 12 12 11 10 10 9 10 10 9 9 9 9 8 8 9 9 9 10 10 10 10 10 11 10 10 10 10 9 9 8 9 10 9 10 10 10 10 10
Height
1521 1522 1523 1524 1524 1516 1510 1507 1504 1504 1504 1506 1506 1505 1501 1504 1502 1509 1512 1514 1516 1518 1521 1522 1524 1527 1529 1530 1532 1533 1534 1534 1534 1535 1537 1538 1538 1538 1537 1538 1538 1538 1539 1539 1538 1538 1537 1537 1535
1520 1522 1523 1523 1519 1515 1503 1502 1505 1502 1504 1507 1508 1508 1506 1508 1511 1512 1514 1515 1517 1519 1522 1523 1523 1527 1529 1530 1531 1533 1534 1534 1535 1536 1537 1538 1539 1539 1539 1539 1539 1539 1539 1539 1540 1539 1539 1538 1538
1520 1522 1525 1519 1514 1511 1507 1505 1502 1506 1507 1508 1508 1509 1509 1511 1512 1514 1514 1515 1518 1520 1523 1524 1524 1527 1528 1530 1531 1533 1533 1534 1535 1536 1537 1538 1539 1540 1540 1540 1540 1540 1541 1540 1541 1540 1540 1539 1539
1519 1523 1525 1519 1520 1511 1508 1505 1506 1508 1509 1510 1509 1508 1512 1511 1513 1514 1515 1517 1519 1520 1523 1522 1524 1526 1528 1530 1531 1532 1533 1534 1536 1536 1537 1538 1539 1539 1540 1540 1541 1542 1542 1542 1541 1541 1541 1541 1540
1519 1520 1516 1516 1511 1507 1508 1509 1510 1507 1509 1509 1510 1508 1510 1512 1512 1514 1515 1517 1520 1521 1522 1522 1524 1525 1528 1529 1531 1531 1533 1535 1536 1537 1536 1538 1539 1539 1540 1541 1542 1543 1543 1542 1543 1542 1542 1542 1542
1520 1518 1513 1511 1506 1506 1506 1507 1508 1507 1509 1509 1509 1509 1510 1511 1513 1514 1516 1518 1520 1521 1522 1522 1523 1525 1526 1528 1530 1531 1532 1533 1535 1536 1537 1538 1539 1539 1540 1540 1542 1544 1544 1543 1543 1543 1543 1543 1543
1516 1514 1509 1509 1509 1506 1504 1506 1505 1504 1506 1508 1508 1506 1511 1511 1513 1513 1516 1518 1519 1520 1520 1522 1522 1524 1526 1527 1529 1530 1531 1532 1534 1535 1537 1538 1539 1539 1539 1540 1542 1543 1544 1544 1543 1544 1544 1544 1544
1516 1514 1512 1508 1504 1505 1505 1504 1505 1506 1505 1509 1509 1505 1507 1510 1512 1514 1516 1517 1518 1519 1519 1521 1523 1524 1526 1526 1527 1528 1530 1531 1533 1535 1536 1538 1539 1539 1539 1539 1541 1543 1543 1543 1543 1544 1545 1545 1544
1517 1513 1506 1505 1508 1502 1505 1504 1506 1506 1506 1507 1508 1508 1509 1509 1511 1513 1515 1516 1516 1518 1519 1520 1522 1523 1524 1525 1526 1527 1528 1530 1532 1533 1534 1537 1539 1539 1539 1539 1540 1541 1543 1543 1544 1544 1545 1545 1545
1515 1510 1502 1502 1503 1502 1504 1504 1503 1505 1504 1504 1505 1507 1507 1508 1510 1513 1513 1514 1515 1517 1517 1518 1520 1521 1523 1524 1524 1525 1526 1528 1530 1532 1533 1536 1539 1540 1540 1539 1539 1540 1541 1543 1544 1544 1545 1547 1547
1511 1507 1503 1504 1505 1504 1502 1502 1502 1501 1501 1501 1502 1504 1506 1508 1509 1511 1512 1513 1515 1516 1517 1517 1518 1519 1521 1522 1522 1523 1525 1526 1528 1530 1532 1534 1537 1537 1537 1539 1538 1539 1540 1542 1543 1543 1545 1549 1549
1509 1505 1507 1505 1504 1504 1502 1501 1499 1498 1498 1500 1502 1503 1504 1505 1507 1508 1510 1511 1514 1514 1514 1515 1516 1518 1520 1520 1522 1523 1523 1525 1527 1528 1530 1531 1532 1533 1534 1535 1537 1536 1538 1539 1541 1542 1544 1546 1547
1505 1501 1503 1505 1505 1503 1502 1499 1497 1493 1495 1497 1499 1499 1500 1501 1503 1505 1508 1510 1511 1512 1512 1512 1514 1516 1519 1519 1521 1521 1522 1523 1525 1525 1527 1528 1529 1530 1531 1531 1533 1533 1535 1536 1538 1541 1543 1543 1546
1502 1502 1499 1499 1499 1500 1499 1493 1494 1488 1490 1491 1494 1495 1496 1497 1499 1502 1504 1506 1507 1509 1510 1510 1512 1514 1516 1518 1517 1518 1519 1520 1522 1523 1524 1525 1526 1527 1527 1528 1530 1531 1532 1534 1536 1538 1540 1543 1544
1504 1501 1495 1492 1491 1493 1497 1489 1483 1486 1486 1486 1487 1489 1490 1492 1494 1496 1499 1501 1504 1506 1506 1508 1510 1512 1513 1514 1515 1516 1517 1518 1519 1520 1521 1523 1523 1524 1525 1525 1527 1528 1529 1530 1533 1535 1537 1540 1541
1502 1500 1494 1485 1489 1490 1494 1482 1477 1480 1482 1482 1481 1481 1484 1487 1489 1491 1494 1497 1499 1502 1502 1504 1506 1508 1510 1511 1512 1513 1514 1516 1517 1517 1518 1520 1520 1520 1521 1522 1523 1524 1525 1527 1530 1532 1534 1538 1541
1496 1493 1490 1487 1487 1485 1486 1476 1478 1480 1481 1479 1476 1475 1478 1481 1484 1486 1489 1490 1493 1496 1498 1500 1502 1505 1506 1508 1508 1509 1511 1511 1512 1513 1515 1516 1516 1516 1516 1518 1520 1521 1523 1524 1527 1529 1532 1535 1537
1486 1493 1489 1489 1486 1485 1481 1478 1474 1475 1475 1473 1471 1469 1470 1473 1476 1480 1482 1485 1488 1490 1493 1496 1498 1501 1502 1503 1503 1505 1506 1506 1507 1509 1510 1511 1511 1512 1512 1513 1515 1517 1519 1521 1524 1527 1530 1533 1535
1489 1493 1490 1485 1488 1489 1479 1472 1469 1469 1469 1467 1464 1463 1462 1465 1469 1474 1475 1478 1482 1485 1488 1491 1494 1496 1497 1499 1499 1499 1499 1500 1502 1504 1505 1507 1507 1508 1509 1510 1511 1513 1516 1519 1521 1523 1527 1529 1532
1490 1491 1485 1480 1483 1485 1478 1471 1464 1462 1458 1456 1455 1454 1453 1456 1462 1466 1469 1471 1475 1480 1484 1487 1489 1491 1493 1494 1495 1495 1495 1495 1497 1499 1501 1503 1503 1504 1505 1506 1508 1510 1512 1516 1517 1519 1524 1525 1527
1486 1487 1482 1481 1480 1480 1473 1467 1451 1453 1450 1449 1448 1448 1448 1449 1453 1459 1462 1466 1471 1476 1478 1482 1486 1487 1488 1489 1489 1490 1491 1491 1492 1494 1497 1498 1499 1500 1501 1502 1504 1506 1508 1511 1505 1515 1520 1524 1528
1482 1477 1481 1482 1484 1481 1474 1467 1449 1449 1446 1443 1442 1441 1444 1446 1447 1453 1457 1462 1467 1472 1475 1479 1481 1483 1484 1484 1485 1486 1488 1490 1491 1493 1493 1495 1496 1496 1497 1499 1500 1503 1505 1507 1509 1515 1518 1520 1523
1475 1477 1479 1479 1478 1475 1472 1475 1444 1451 1444 1436 1439 1440 1442 1443 1444 1448 1454 1459 1464 1468 1472 1475 1477 1479 1480 1481 1482 1483 1485 1487 1488 1489 1491 1492 1493 1494 1494 1496 1499 1499 1502 1505 1510 1513 1516 1519 1522
1474 1476 1480 1482 1476 1476 1459 1465 1442 1445 1440 1434 1437 1439 1441 1442 1443 1447 1453 1458 1462 1466 1469 1472 1474 1476 1478 1479 1479 1481 1482 1483 1485 1487 1488 1489 1490 1491 1493 1494 1497 1498 1501 1506 1509 1511 1513 1516 1519
1474 1478 1480 1486 1479 1463 1461 1463 1444 1436 1440 1438 1436 1437 1441 1442 1444 1447 1452 1457 1461 1464 1466 1470 1472 1474 1476 1477 1478 1479 1480 1481 1483 1484 1485 1486 1488 1490 1491 1493 1495 1497 1500 1503 1505 1508 1510 1513 1516
1466 1464 1474 1481 1467 1461 1468 1460 1439 1437 1438 1438 1439 1438 1440 1443 1445 1448 1453 1456 1461 1464 1466 1468 1470 1472 1474 1476 1478 1479 1480 1482 1483 1483 1484 1485 1487 1488 1489 1490 1492 1494 1497 1501 1502 1505 1508 1510 1514
1455 1462 1451 1463 1467 1471 1453 1443 1435 1436 1433 1436 1435 1436 1439 1443 1446 1449 1453 1457 1461 1463 1466 1468 1470 1471 1473 1476 1478 1478 1479 1480 1482 1482 1482 1483 1484 1485 1486 1487 1489 1492 1494 1498 1500 1502 1505 1508 1510
1443 1448 1465 1471 1472 1468 1444 1440 1436 1434 1432 1429 1433 1436 1439 1443 1447 1452 1454 1457 1461 1464 1465 1468 1470 1471 1473 1475 1477 1477 1479 1480 1480 1481 1482 1482 1482 1483 1484 1484 1486 1489 1491 1494 1497 1499 1501 1503 1507
1443 1450 1444 1447 1449 1438 1439 1438 1426 1432 1436 1435 1433 1437 1439 1443 1447 1452 1455 1458 1461 1463 1465 1467 1470 1471 1473 1475 1475 1476 1478 1478 1479 1480 1480 1480 1479 1479 1480 1480 1481 1484 1487 1490 1493 1495 1498 1499 1501
1452 1449 1433 1434 1437 1435 1432 1428 1427 1432 1438 1439 1439 1438 1439 1442 1446 1451 1454 1457 1460 1463 1465 1467 1469 1470 1472 1474 1474 1475 1477 1478 1478 1479 1478 1477 1475 1473 1473 1474 1476 1480 1483 1486 1489 1492 1494 1496 1496
Wind_Speed
4 4 3 2 4 4 6 4 2 8 6 3 3 3 1 6 3 3 9 13 13 17 18 18 17 16 13 11 9 7 6 7 7 8 7 6 5 5 7 7 8 9 8 7 8 5 5 8 11
3 4 2 2 5 7 4 4 9 7 3 7 7 5 4 4 5 9 11 10 13 16 17 17 17 15 13 12 10 7 5 5 7 7 7 7 6 6 6 7 8 9 8 8 5 4 5 7 10
5 6 2 3 4 7 2 3 4 5 11 7 4 1 1 6 8 9 6 11 14 15 16 17 17 17 14 11 10 7 5 4 5 4 6 7 8 6 6 7 8 9 8 7 4 4 4 6 8
7 4 2 5 8 5 5 4 2 6 10 3 3 4 3 4 7 6 9 11 13 14 14 16 17 16 14 13 10 7 5 5 6 5 6 7 9 6 6 8 8 9 8 5 4 3 3 4 7
8 3 4 6 9 6 6 5 3 7 5 6 6 5 4 4 6 7 10 12 12 13 13 15 17 15 14 13 11 7 5 6 6 6 8 7 8 8 7 8 8 8 7 5 3 3 2 3 6
3 3 5 8 9 6 5 6 5 7 6 5 7 5 4 8 7 8 9 11 12 13 14 15 15 14 14 13 13 11 8 7 8 9 9 8 8 9 8 8 9 8 6 5 4 4 3 3 6
4 4 5 7 8 8 4 3 8 9 8 8 2 4 3 8 9 10 10 10 12 13 14 14 15 16 14 14 14 12 9 7 9 9 9 9 8 9 8 8 9 7 6 6 5 5 5 5 5
4 3 5 5 5 5 1 2 2 10 9 2 5 4 2 9 12 11 11 11 13 13 13 13 13 14 14 15 14 12 10 10 9 9 11 10 9 9 10 10 10 8 8 9 8 8 6 7 5
4 5 7 6 6 1 2 5 4 4 6 7 6 3 2 8 15 14 13 12 14 13 13 13 13 14 14 14 13 12 12 11 11 11 12 12 8 10 11 11 11 9 9 10 10 10 8 8 6
7 5 6 3 5 4 3 5 3 6 10 9 8 6 7 9 15 14 15 14 14 14 14 13 13 12 12 12 12 12 12 12 13 13 11 10 10 10 10 12 12 11 11 12 12 13 10 8 7
5 7 5 6 8 6 6 7 5 7 10 11 10 10 10 13 15 15 15 14 14 13 13 13 13 13 14 12 12 12 12 12 13 13 12 13 12 14 12 10 12 14 15 15 15 15 11 9 8
8 11 11 5 5 5 9 7 10 13 15 6 7 9 12 15 16 18 17 16 14 14 14 14 14 15 14 13 11 11 12 12 11 13 13 14 15 13 12 14 14 15 17 17 17 16 14 13 9
13 10 9 12 13 14 13 17 16 18 17 14 12 12 14 17 18 18 18 17 15 14 12 12 14 14 13 13 12 12 12 13 11 12 13 14 15 15 14 14 15 16 18 20 21 19 15 15 12
2 7 11 9 15 14 14 19 16 15 18 20 19 19 19 19 21 20 20 20 18 15 13 13 14 15 14 13 13 12 12 12 13 13 13 15 16 17 17 18 17 19 20 20 24 22 19 16 16
8 11 12 14 16 13 9 17 19 24 22 18 18 19 18 20 21 24 22 21 19 17 15 16 16 17 17 15 14 12 11 13 13 13 14 15 16 17 17 17 19 19 21 22 23 25 25 22 19
9 7 8 4 6 5 8 14 3 6 10 13 14 20 21 18 20 23 22 20 18 17 18 19 19 20 20 18 16 14 15 16 15 15 16 15 16 18 21 19 18 22 23 26 26 25 25 24 21
9 12 10 9 5 4 13 9 4 3 6 14 13 13 20 20 21 22 23 26 20 23 22 22 23 22 22 20 20 19 19 19 20 20 19 16 16 16 19 19 19 21 26 27 26 26 25 27 26
10 10 9 11 2 7 10 16 14 20 20 21 19 15 17 20 24 22 22 26 27 27 26 25 24 24 23 21 23 24 24 24 25 24 21 18 18 16 17 17 20 23 22 23 22 21 23 30 29
13 12 15 15 6 9 14 19 21 20 21 22 25 25 22 23 22 21 22 25 28 29 28 26 25 24 23 23 23 25 26 27 27 24 23 19 18 16 16 17 19 22 25 21 18 19 21 30 30
17 18 20 18 12 13 16 18 22 22 26 29 27 28 28 25 22 19 20 24 27 26 27 26 23 22 22 23 23 21 18 23 22 20 21 19 18 15 15 14 17 20 25 26 22 17 19 31 33
17 19 20 20 16 19 20 21 18 11 11 13 16 18 20 23 25 20 21 22 22 20 23 21 20 20 20 20 21 20 17 17 17 19 20 17 15 15 16 16 17 19 23 23 14 14 15 22 33
18 15 15 15 12 10 2 9 13 13 15 11 11 14 14 14 17 22 22 21 20 18 19 17 17 16 17 16 16 14 11 11 11 12 15 16 15 17 17 15 15 16 20 19 25 16 17 25 37
16 5 7 7 11 15 16 9 9 4 14 6 3 2 5 7 13 22 22 20 18 18 17 15 14 13 13 12 12 13 12 11 11 13 14 15 14 14 13 14 15 17 22 24 24 16 21 23 30
3 8 2 6 7 13 16 13 10 6 5 5 1 3 3 6 13 19 19 19 18 18 15 14 12 11 10 9 12 14 14 15 15 15 15 13 12 12 13 15 13 14 16 22 23 19 20 21 22
16 7 3 6 8 14 1 6 14 7 4 13 12 2 5 10 16 21 21 19 17 16 15 12 12 11 10 10 10 10 10 12 12 12 12 11 13 14 14 17 17 21 19 22 23 23 20 23 24
22 17 7 9 12 11 2 8 4 2 2 11 7 4 10 14 17 19 19 18 16 14 14 13 12 13 11 10 11 11 11 11 10 9 9 10 10 11 14 16 17 18 20 19 20 20 22 22 22
18 17 16 6 5 9 9 9 8 5 2 3 5 7 14 18 17 19 19 17 15 14 15 13 12 12 10 10 9 10 9 9 10 9 9 9 9 8 9 14 19 18 17 21 22 22 22 20 20
22 14 7 5 7 8 9 13 8 5 9 13 2 9 17 16 16 18 18 16 15 14 14 13 12 11 10 9 9 9 8 8 7 6 7 8 10 11 11 12 15 20 21 20 21 21 23 20 19
14 14 11 8 10 9 8 5 6 8 7 10 1 11 18 19 19 18 16 15 14 13 12 12 12 10 9 9 6 6 7 7 6 6 6 10 15 18 18 19 20 21 22 22 22 20 21 20 23
9 14 20 12 14 13 10 6 10 7 5 5 2 11 18 19 19 18 17 15 14 13 12 12 13 11 10 9 8 7 7 7 6 6 5 6 7 10 11 14 19 18 20 20 21 16 16 22 29
Wind_Direction
244 228 233 292 239 238 242 221 303 191 189 160 144 220 192 19 345 17 142 156 165 167 172 174 178 176 171 161 178 166 161 163 167 173 178 179 168 164 156 153 152 148 142 128 120 101 74 79 81
222 187 192 243 247 230 227 214 206 188 143 143 133 138 166 90 84 124 136 168 163 168 174 176 175 175 175 180 179 171 165 153 166 179 184 179 165 168 165 163 162 153 150 142 135 95 81 80 85
152 154 215 262 248 244 255 217 208 182 158 163 154 2 84 111 116 131 147 159 162 170 176 181 176 176 185 183 180 176 172 164 166 168 183 183 172 182 178 171 166 158 152 149 141 114 81 89 96
145 137 168 249 257 283 268 9 187 172 186 241 190 163 120 129 141 141 155 162 166 171 179 190 178 190 186 186 199 195 183 193 176 168 162 167 180 190 193 183 179 169 167 167 148 128 95 101 106
151 167 218 240 259 259 243 251 218 203 212 210 206 153 134 150 149 147 155 167 170 175 179 190 188 187 188 186 198 206 197 205 191 174 174 178 183 192 193 190 177 175 176 177 179 170 154 142 122
174 233 217 238 247 258 274 226 214 226 211 181 202 181 155 185 162 172 165 174 177 179 178 183 188 185 188 190 202 216 217 209 196 190 192 188 188 193 188 186 189 188 192 201 205 194 183 155 133
233 229 265 258 261 274 247 207 217 214 223 213 207 223 171 180 185 178 172 172 175 177 177 183 191 192 195 195 206 213 225 212 204 200 199 198 204 198 195 199 199 202 202 206 207 193 197 157 146
193 240 233 240 250 266 278 226 235 217 211 188 197 231 191 185 185 177 177 175 180 184 183 186 192 198 203 206 209 213 222 215 208 202 207 211 211 208 203 206 208 210 211 208 201 207 203 170 158
174 238 239 241 228 203 205 229 190 202 202 189 205 225 183 180 195 185 182 184 191 194 196 197 201 202 205 204 212 213 216 215 213 204 211 210 209 215 215 211 218 216 217 213 209 211 203 180 168
226 245 242 235 215 227 262 258 233 223 208 208 210 218 217 202 197 196 193 197 202 211 209 202 206 207 210 206 214 211 213 214 216 215 208 206 216 217 209 224 223 222 221 218 216 217 207 167 164
191 256 251 236 249 256 247 240 225 238 232 235 226 228 211 201 207 209 212 212 216 214 209 213 210 211 211 210 217 219 220 221 226 228 230 227 215 225 214 221 217 216 216 216 212 215 194 181 174
236 245 252 276 249 247 248 257 249 239 246 244 258 253 229 219 221 213 214 214 213 211 216 225 222 223 222 219 217 221 226 229 228 229 236 235 236 229 218 212 215 221 217 216 210 203 185 188 176
235 248 250 256 268 264 261 254 258 257 249 251 254 243 233 232 227 224 220 216 215 215 216 223 225 218 218 219 217 218 221 231 230 240 242 242 242 243 233 236 233 232 224 222 214 201 194 192 172
290 256 258 253 263 262 254 260 249 251 250 251 244 242 241 234 226 223 218 218 217 216 218 221 225 221 218 218 232 231 233 236 238 239 240 246 245 244 243 243 244 238 231 228 223 213 198 189 181
273 276 269 253 249 254 263 261 246 256 252 251 247 243 238 237 226 223 224 221 222 221 219 224 222 221 224 231 236 234 235 231 232 238 244 252 254 252 249 244 242 239 234 229 229 224 211 198 187
268 263 269 131 164 184 199 269 259 238 224 239 253 242 238 234 226 223 222 223 220 215 226 227 225 223 226 231 232 234 235 239 240 245 247 250 253 254 250 242 236 232 230 229 227 223 218 201 187
222 268 244 280 217 200 206 265 170 179 255 283 267 245 235 233 227 225 223 227 221 228 229 231 229 227 231 237 241 240 239 241 242 248 247 254 257 259 252 246 242 237 226 227 224 227 222 204 198
273 249 255 265 174 217 230 253 259 271 277 275 272 254 236 233 229 224 220 226 229 230 231 233 230 231 235 242 252 250 248 247 248 248 249 250 262 265 256 254 242 239 222 224 224 223 226 212 206
271 278 277 278 258 290 266 274 279 278 271 261 259 255 240 234 234 221 216 223 225 228 229 228 230 234 242 246 249 251 251 251 251 247 244 251 259 255 257 253 239 245 234 218 230 234 230 218 203
248 265 272 281 290 273 278 283 286 280 265 257 256 255 247 236 223 210 206 214 220 220 221 223 230 236 241 245 249 251 253 258 258 249 238 244 246 246 257 255 246 244 233 237 237 211 217 208 195
241 252 266 276 289 286 272 278 266 283 265 255 256 256 250 236 219 205 196 199 202 201 212 220 227 235 245 250 253 252 249 253 246 235 229 232 245 252 254 256 250 236 234 226 212 226 227 211 183
253 252 260 272 279 273 348 294 292 286 282 267 279 254 236 222 213 203 190 185 187 192 204 211 224 235 244 249 244 231 226 226 227 228 229 231 247 255 248 241 220 218 222 209 213 236 225 209 192
246 205 247 259 266 278 261 264 268 257 284 197 27 12 210 210 192 184 182 177 175 188 195 207 219 230 234 227 218 222 220 222 223 225 225 230 245 244 225 223 224 232 212 214 209 224 224 222 209
223 176 230 266 264 252 254 226 270 236 239 253 240 5 182 163 169 168 168 165 169 180 188 200 206 207 204 210 223 226 228 227 229 228 228 233 231 237 224 213 223 211 200 202 214 226 224 225 221
209 201 208 249 226 259 52 232 254 252 257 298 307 282 173 160 157 159 161 161 166 171 183 188 188 188 189 196 196 187 186 187 193 207 213 212 219 223 220 216 222 217 215 217 231 228 223 226 225
209 206 180 229 248 256 122 239 241 159 262 285 284 244 167 162 159 159 157 157 160 160 174 173 173 174 178 187 191 184 181 188 199 213 214 220 233 232 231 228 228 227 228 229 230 232 231 238 243
207 221 226 254 239 272 245 247 266 249 239 233 306 183 169 161 161 158 158 158 158 161 171 171 167 162 163 178 182 168 175 183 190 195 205 216 224 231 239 241 234 232 221 225 228 234 238 240 240
223 206 176 179 216 221 232 241 244 33 339 339 294 173 161 160 158 162 162 161 159 159 168 169 167 162 160 172 165 158 172 179 186 196 219 235 248 253 243 232 229 228 225 225 223 237 237 244 229
214 226 226 202 227 231 230 238 152 124 347 331 37 169 164 164 162 166 167 166 163 162 160 169 171 171 170 182 178 184 196 202 220 233 250 266 266 266 254 239 231 226 220 224 226 230 235 242 243
290 279 224 207 194 228 254 186 147 83 38 358 99 164 169 170 169 170 170 167 165 165 165 170 177 176 180 190 199 208 214 223 227 253 268 280 259 244 243 233 234 218 211 220 219 224 236 241 240